Time,TemperatureF,DewpointF,PressureIn,WindDirection,WindDirectionDegrees,WindSpeedMPH,WindSpeedGustMPH,Humidity,HourlyPrecipIn,Conditions,Clouds,dailyrainin,SoftwareType,DateUTC
2013-03-22 00:02:00,15.0,5.0,29.90,WNW,292,0.0,-999.0,65,-99.99,,,-99.99,,2013-03-22 06:02:00,
2013-03-22 00:13:00,15.0,5.0,29.90,WNW,292,0.0,-999.0,65,-99.99,,,-99.99,,2013-03-22 06:13:00,
2013-03-22 00:22:00,14.0,4.0,29.91,WNW,292,1.0,-999.0,65,-99.99,,,-99.99,,2013-03-22 06:22:00,
2013-03-22 00:32:00,14.0,4.0,29.91,ENE,58,1.0,-999.0,64,-99.99,,,-99.99,,2013-03-22 06:32:00,
2013-03-22 00:42:00,14.0,4.0,29.91,ENE,58,1.0,-999.0,64,-99.99,,,-99.99,,2013-03-22 06:42:00,
2013-03-22 00:52:00,14.0,3.0,29.91,NW,313,2.0,-999.0,61,-99.99,,,-99.99,,2013-03-22 06:52:00,
2013-03-22 01:02:00,14.0,4.0,29.92,NW,313,0.0,-999.0,63,-99.99,,,-99.99,,2013-03-22 07:02:00,
2013-03-22 01:12:00,14.0,4.0,29.92,NW,313,0.0,-999.0,63,-99.99,,,-99.99,,2013-03-22 07:12:00,
2013-03-22 01:22:00,13.0,3.0,29.92,East,85,1.0,-999.0,64,-99.99,,,-99.99,,2013-03-22 07:22:00,
2013-03-22 01:32:00,14.0,3.0,29.93,North,5,1.0,-999.0,61,-99.99,,,-99.99,,2013-03-22 07:32:00,
2013-03-22 01:42:00,14.0,3.0,29.93,North,5,1.0,-999.0,61,-99.99,,,-99.99,,2013-03-22 07:42:00,
2013-03-22 01:52:00,15.0,3.0,29.93,ESE,121,0.0,-999.0,59,-99.99,,,-99.99,,2013-03-22 07:52:00,
2013-03-22 02:03:00,13.0,1.0,29.92,SSE,166,1.0,-999.0,59,-99.99,,,-99.99,,2013-03-22 08:03:00,
2013-03-22 02:12:00,13.0,1.0,29.92,SSE,166,1.0,-999.0,59,-99.99,,,-99.99,,2013-03-22 08:12:00,
2013-03-22 02:22:00,13.0,1.0,29.92,SSE,166,0.0,-999.0,59,-99.99,,,-99.99,,2013-03-22 08:22:00,
2013-03-22 02:32:00,13.0,2.0,29.93,SSE,166,0.0,-999.0,60,-99.99,,,-99.99,,2013-03-22 08:32:00,
2013-03-22 02:42:00,13.0,2.0,29.93,SSE,166,0.0,-999.0,60,-99.99,,,-99.99,,2013-03-22 08:42:00,
2013-03-22 02:52:00,11.0,0.0,29.93,SSE,166,0.0,-999.0,61,-99.99,,,-99.99,,2013-03-22 08:52:00,
2013-03-22 03:02:00,11.0,-1.0,29.94,NE,51,1.0,-999.0,57,-99.99,,,-99.99,,2013-03-22 09:02:00,
2013-03-22 03:12:00,11.0,-1.0,29.94,NE,51,1.0,-999.0,57,-99.99,,,-99.99,,2013-03-22 09:12:00,
2013-03-22 03:22:00,12.0,0.0,29.94,NE,51,0.0,-999.0,59,-99.99,,,-99.99,,2013-03-22 09:22:00,
2013-03-22 03:32:00,10.0,-1.0,29.94,NE,51,0.0,-999.0,60,-99.99,,,-99.99,,2013-03-22 09:32:00,
2013-03-22 03:42:00,10.0,-1.0,29.94,NE,51,0.0,-999.0,60,-99.99,,,-99.99,,2013-03-22 09:42:00,
2013-03-22 03:53:00,9.0,-1.0,29.94,NE,51,0.0,-999.0,62,-99.99,,,-99.99,,2013-03-22 09:53:00,
2013-03-22 04:03:00,7.0,-3.0,29.93,NE,51,0.0,-999.0,63,-99.99,,,-99.99,,2013-03-22 10:03:00,
2013-03-22 04:12:00,7.0,-3.0,29.93,NE,51,0.0,-999.0,63,-99.99,,,-99.99,,2013-03-22 10:12:00,
2013-03-22 04:22:00,6.0,-3.0,29.93,NE,51,1.0,-999.0,65,-99.99,,,-99.99,,2013-03-22 10:22:00,
2013-03-22 04:32:00,6.0,-3.0,29.93,NE,51,1.0,-999.0,66,-99.99,,,-99.99,,2013-03-22 10:32:00,
2013-03-22 04:42:00,6.0,-3.0,29.93,NE,51,1.0,-999.0,66,-99.99,,,-99.99,,2013-03-22 10:42:00,
2013-03-22 04:52:00,6.0,-3.0,29.94,NE,51,1.0,-999.0,66,-99.99,,,-99.99,,2013-03-22 10:52:00,
2013-03-22 05:03:00,7.0,-2.0,29.94,NE,51,1.0,-999.0,65,-99.99,,,-99.99,,2013-03-22 11:03:00,
2013-03-22 05:12:00,7.0,-2.0,29.94,NE,51,1.0,-999.0,65,-99.99,,,-99.99,,2013-03-22 11:12:00,
2013-03-22 05:22:00,6.0,-3.0,29.94,NE,51,1.0,-999.0,65,-99.99,,,-99.99,,2013-03-22 11:22:00,
2013-03-22 05:33:00,5.0,-4.0,29.95,NE,51,0.0,-999.0,66,-99.99,,,-99.99,,2013-03-22 11:33:00,
2013-03-22 05:42:00,5.0,-4.0,29.95,NE,51,0.0,-999.0,66,-99.99,,,-99.99,,2013-03-22 11:42:00,
2013-03-22 06:02:00,4.0,-4.0,29.96,NE,51,1.0,-999.0,68,-99.99,,,-99.99,,2013-03-22 12:02:00,
2013-03-22 06:12:00,4.0,-4.0,29.96,NE,51,0.0,-999.0,68,-99.99,,,-99.99,,2013-03-22 12:12:00,
2013-03-22 06:22:00,4.0,-4.0,29.96,NE,51,0.0,-999.0,68,-99.99,,,-99.99,,2013-03-22 12:22:00,
2013-03-22 06:32:00,6.0,-3.0,29.96,NE,51,1.0,-999.0,66,-99.99,,,-99.99,,2013-03-22 12:32:00,
2013-03-22 06:42:00,6.0,-3.0,29.96,NE,51,1.0,-999.0,66,-99.99,,,-99.99,,2013-03-22 12:42:00,
2013-03-22 06:52:00,7.0,-3.0,29.96,NE,51,1.0,-999.0,64,-99.99,,,-99.99,,2013-03-22 12:52:00,
2013-03-22 07:02:00,8.0,-2.0,29.97,NW,305,0.0,-999.0,62,-99.99,,,-99.99,,2013-03-22 13:02:00,
2013-03-22 07:12:00,8.0,-2.0,29.97,NW,305,0.0,-999.0,62,-99.99,,,-99.99,,2013-03-22 13:12:00,
2013-03-22 07:22:00,8.0,-2.0,29.97,NW,305,0.0,-999.0,62,-99.99,,,-99.99,,2013-03-22 13:22:00,
2013-03-22 07:32:00,12.0,-1.0,29.97,East,99,1.0,-999.0,54,-99.99,,,-99.99,,2013-03-22 13:32:00,
2013-03-22 07:42:00,12.0,-1.0,29.97,East,99,1.0,-999.0,54,-99.99,,,-99.99,,2013-03-22 13:42:00,
2013-03-22 07:52:00,12.0,-2.0,29.97,East,82,1.0,-999.0,52,-99.99,,,-99.99,,2013-03-22 13:52:00,
2013-03-22 08:02:00,12.0,1.0,29.98,East,82,0.0,-999.0,61,-99.99,,,-99.99,,2013-03-22 14:02:00,
2013-03-22 08:12:00,12.0,1.0,29.98,East,82,0.0,-999.0,61,-99.99,,,-99.99,,2013-03-22 14:12:00,
2013-03-22 08:22:00,13.0,-3.0,29.98,SSW,211,1.0,-999.0,47,-99.99,,,-99.99,,2013-03-22 14:22:00,
2013-03-22 08:32:00,14.0,-2.0,29.97,NNW,348,1.0,-999.0,48,-99.99,,,-99.99,,2013-03-22 14:32:00,
2013-03-22 08:42:00,14.0,-2.0,29.97,NNW,348,1.0,-999.0,48,-99.99,,,-99.99,,2013-03-22 14:42:00,
2013-03-22 08:52:00,15.0,-2.0,29.98,North,5,0.0,-999.0,47,-99.99,,,-99.99,,2013-03-22 14:52:00,
2013-03-22 09:03:00,16.0,-2.0,29.98,ENE,59,0.0,-999.0,44,-99.99,,,-99.99,,2013-03-22 15:03:00,
2013-03-22 09:12:00,16.0,-2.0,29.98,ENE,59,0.0,-999.0,44,-99.99,,,-99.99,,2013-03-22 15:12:00,
2013-03-22 09:22:00,18.0,-1.0,29.99,WNW,294,1.0,-999.0,43,-99.99,,,-99.99,,2013-03-22 15:22:00,
2013-03-22 09:32:00,19.0,-1.0,29.99,WNW,289,1.0,-999.0,41,-99.99,,,-99.99,,2013-03-22 15:32:00,
2013-03-22 09:42:00,19.0,-1.0,29.99,WNW,289,1.0,-999.0,41,-99.99,,,-99.99,,2013-03-22 15:42:00,
2013-03-22 09:52:00,20.0,-1.0,29.98,East,100,2.0,-999.0,39,-99.99,,,-99.99,,2013-03-22 15:52:00,
2013-03-22 10:02:00,22.0,-1.0,29.98,NE,46,2.0,-999.0,36,-99.99,,,-99.99,,2013-03-22 16:02:00,
2013-03-22 10:13:00,23.0,-1.0,29.98,SE,136,3.0,-999.0,35,-99.99,,,-99.99,,2013-03-22 16:13:00,
2013-03-22 10:22:00,23.0,-1.0,29.98,SE,136,3.0,-999.0,35,-99.99,,,-99.99,,2013-03-22 16:22:00,
2013-03-22 10:32:00,23.0,-1.0,29.98,NE,51,3.0,-999.0,34,-99.99,,,-99.99,,2013-03-22 16:32:00,
2013-03-22 10:42:00,24.0,-1.0,29.97,ENE,73,4.0,-999.0,33,-99.99,,,-99.99,,2013-03-22 16:42:00,
2013-03-22 10:52:00,24.0,-1.0,29.97,ENE,73,4.0,-999.0,33,-99.99,,,-99.99,,2013-03-22 16:52:00,
2013-03-22 11:03:00,25.0,-1.0,29.97,SE,131,3.0,-999.0,32,-99.99,,,-99.99,,2013-03-22 17:03:00,
2013-03-22 11:12:00,26.0,0.0,29.97,NE,53,3.0,-999.0,31,-99.99,,,-99.99,,2013-03-22 17:12:00,
2013-03-22 11:23:00,26.0,0.0,29.97,NE,53,3.0,-999.0,31,-99.99,,,-99.99,,2013-03-22 17:23:00,
2013-03-22 11:32:00,26.0,0.0,29.96,ESE,116,3.0,-999.0,31,-99.99,,,-99.99,,2013-03-22 17:32:00,
2013-03-22 11:42:00,26.0,0.0,29.96,ESE,116,3.0,-999.0,31,-99.99,,,-99.99,,2013-03-22 17:42:00,
2013-03-22 11:52:00,26.0,-1.0,29.96,East,94,4.0,-999.0,30,-99.99,,,-99.99,,2013-03-22 17:52:00,
2013-03-22 12:02:00,26.0,-2.0,29.96,East,80,4.0,-999.0,29,-99.99,,,-99.99,,2013-03-22 18:02:00,
2013-03-22 12:12:00,26.0,-2.0,29.96,East,80,4.0,-999.0,29,-99.99,,,-99.99,,2013-03-22 18:12:00,
2013-03-22 12:22:00,26.0,0.0,29.96,East,88,4.0,-999.0,31,-99.99,,,-99.99,,2013-03-22 18:22:00,
2013-03-22 12:33:00,27.0,-1.0,29.96,SE,139,4.0,-999.0,29,-99.99,,,-99.99,,2013-03-22 18:33:00,
2013-03-22 12:42:00,27.0,-1.0,29.96,SE,139,4.0,-999.0,29,-99.99,,,-99.99,,2013-03-22 18:42:00,
2013-03-22 12:52:00,27.0,-1.0,29.95,NE,36,4.0,-999.0,29,-99.99,,,-99.99,,2013-03-22 18:52:00,
2013-03-22 13:02:00,27.0,-1.0,29.94,NNE,20,4.0,-999.0,29,-99.99,,,-99.99,,2013-03-22 19:02:00,
2013-03-22 13:12:00,27.0,-1.0,29.94,NNE,20,4.0,-999.0,29,-99.99,,,-99.99,,2013-03-22 19:12:00,
2013-03-22 13:22:00,28.0,-1.0,29.93,SE,134,4.0,-999.0,28,-99.99,,,-99.99,,2013-03-22 19:22:00,
2013-03-22 13:32:00,29.0,1.0,29.93,NNE,20,4.0,-999.0,30,-99.99,,,-99.99,,2013-03-22 19:32:00,
2013-03-22 13:42:00,29.0,1.0,29.93,NNE,20,4.0,-999.0,30,-99.99,,,-99.99,,2013-03-22 19:42:00,
2013-03-22 13:52:00,29.0,0.0,29.93,East,90,4.0,-999.0,28,-99.99,,,-99.99,,2013-03-22 19:52:00,
2013-03-22 14:02:00,29.0,0.0,29.91,ENE,74,5.0,-999.0,28,-99.99,,,-99.99,,2013-03-22 20:02:00,
2013-03-22 14:12:00,29.0,0.0,29.91,ENE,74,5.0,-999.0,28,-99.99,,,-99.99,,2013-03-22 20:12:00,
2013-03-22 14:22:00,30.0,1.0,29.90,NNE,16,3.0,-999.0,28,-99.99,,,-99.99,,2013-03-22 20:22:00,
2013-03-22 14:32:00,29.0,1.0,29.90,East,82,4.0,-999.0,30,-99.99,,,-99.99,,2013-03-22 20:32:00,
2013-03-22 14:42:00,29.0,1.0,29.90,East,82,4.0,-999.0,30,-99.99,,,-99.99,,2013-03-22 20:42:00,
2013-03-22 14:52:00,29.0,2.0,29.90,SSE,147,2.0,-999.0,31,-99.99,,,-99.99,,2013-03-22 20:52:00,
2013-03-22 15:03:00,29.0,3.0,29.89,East,86,3.0,-999.0,32,-99.99,,,-99.99,,2013-03-22 21:03:00,
2013-03-22 15:12:00,29.0,1.0,29.89,ENE,65,4.0,-999.0,30,-99.99,,,-99.99,,2013-03-22 21:12:00,
2013-03-22 15:22:00,29.0,1.0,29.89,ENE,65,4.0,-999.0,30,-99.99,,,-99.99,,2013-03-22 21:22:00,
2013-03-22 15:32:00,27.0,0.0,29.89,NE,51,3.0,-999.0,31,-99.99,,,-99.99,,2013-03-22 21:32:00,
2013-03-22 15:43:00,27.0,0.0,29.89,NE,51,3.0,-999.0,31,-99.99,,,-99.99,,2013-03-22 21:43:00,
2013-03-22 15:52:00,27.0,2.0,29.89,ENE,75,3.0,-999.0,33,-99.99,,,-99.99,,2013-03-22 21:52:00,
2013-03-22 16:03:00,28.0,0.0,29.88,ESE,107,4.0,-999.0,29,-99.99,,,-99.99,,2013-03-22 22:03:00,
2013-03-22 16:12:00,28.0,0.0,29.88,ESE,107,4.0,-999.0,29,-99.99,,,-99.99,,2013-03-22 22:12:00,
2013-03-22 16:23:00,29.0,1.0,29.88,East,98,3.0,-999.0,29,-99.99,,,-99.99,,2013-03-22 22:23:00,
2013-03-22 16:32:00,28.0,0.0,29.87,SW,220,4.0,-999.0,29,-99.99,,,-99.99,,2013-03-22 22:32:00,
2013-03-22 16:42:00,28.0,0.0,29.87,SW,220,4.0,-999.0,29,-99.99,,,-99.99,,2013-03-22 22:42:00,
2013-03-22 16:52:00,27.0,0.0,29.85,ENE,75,3.0,-999.0,30,-99.99,,,-99.99,,2013-03-22 22:52:00,
2013-03-22 17:02:00,27.0,1.0,29.86,ESE,107,2.0,-999.0,32,-99.99,,,-99.99,,2013-03-22 23:02:00,
2013-03-22 17:12:00,27.0,1.0,29.86,ESE,107,2.0,-999.0,32,-99.99,,,-99.99,,2013-03-22 23:12:00,
2013-03-22 17:22:00,27.0,2.0,29.86,SE,128,3.0,-999.0,33,-99.99,,,-99.99,,2013-03-22 23:22:00,
2013-03-22 17:32:00,26.0,1.0,29.86,ENE,74,3.0,-999.0,33,-99.99,,,-99.99,,2013-03-22 23:32:00,
2013-03-22 17:42:00,26.0,1.0,29.86,ENE,74,3.0,-999.0,33,-99.99,,,-99.99,,2013-03-22 23:42:00,
2013-03-22 17:52:00,26.0,2.0,29.86,NE,49,2.0,-999.0,35,-99.99,,,-99.99,,2013-03-22 23:52:00,
2013-03-22 18:02:00,25.0,6.0,29.88,ENE,65,3.0,-999.0,44,-99.99,,,-99.99,,2013-03-23 00:02:00,
2013-03-22 18:12:00,25.0,6.0,29.88,ENE,65,3.0,-999.0,44,-99.99,,,-99.99,,2013-03-23 00:12:00,
2013-03-22 18:23:00,23.0,10.0,29.88,SW,232,2.0,-999.0,56,-99.99,,,-99.99,,2013-03-23 00:23:00,
2013-03-22 18:32:00,21.0,13.0,29.90,SW,223,1.0,-999.0,71,-99.99,,,-99.99,,2013-03-23 00:32:00,
2013-03-22 18:42:00,19.0,12.0,29.91,SW,223,0.0,-999.0,75,-99.99,,,-99.99,,2013-03-23 00:42:00,
2013-03-22 18:52:00,19.0,12.0,29.91,SW,223,0.0,-999.0,75,-99.99,,,-99.99,,2013-03-23 00:52:00,
2013-03-22 19:03:00,19.0,13.0,29.91,WSW,249,0.0,-999.0,77,-99.99,,,-99.99,,2013-03-23 01:03:00,
2013-03-22 19:12:00,19.0,13.0,29.91,WSW,249,0.0,-999.0,77,-99.99,,,-99.99,,2013-03-23 01:12:00,
2013-03-22 19:22:00,18.0,12.0,29.90,ENE,59,1.0,-999.0,77,-99.99,,,-99.99,,2013-03-23 01:22:00,
2013-03-22 19:32:00,18.0,13.0,29.89,ENE,59,0.0,-999.0,80,-99.99,,,-99.99,,2013-03-23 01:32:00,
2013-03-22 19:42:00,18.0,13.0,29.89,ENE,59,0.0,-999.0,80,-99.99,,,-99.99,,2013-03-23 01:42:00,
2013-03-22 19:52:00,17.0,12.0,29.91,ENE,59,0.0,-999.0,80,-99.99,,,-99.99,,2013-03-23 01:52:00,
2013-03-22 20:02:00,17.0,12.0,29.91,ENE,59,0.0,-999.0,79,-99.99,,,-99.99,,2013-03-23 02:02:00,
2013-03-22 20:12:00,17.0,12.0,29.91,ENE,59,0.0,-999.0,79,-99.99,,,-99.99,,2013-03-23 02:12:00,
2013-03-22 20:22:00,17.0,10.0,29.91,South,181,0.0,-999.0,75,-99.99,,,-99.99,,2013-03-23 02:22:00,
2013-03-22 20:32:00,17.0,11.0,29.92,South,181,0.0,-999.0,77,-99.99,,,-99.99,,2013-03-23 02:32:00,
2013-03-22 20:42:00,17.0,11.0,29.92,South,181,0.0,-999.0,77,-99.99,,,-99.99,,2013-03-23 02:42:00,
2013-03-22 20:52:00,17.0,11.0,29.92,South,184,0.0,-999.0,78,-99.99,,,-99.99,,2013-03-23 02:52:00,
2013-03-22 21:02:00,17.0,11.0,29.93,South,184,0.0,-999.0,78,-99.99,,,-99.99,,2013-03-23 03:02:00,
2013-03-22 21:12:00,17.0,11.0,29.93,South,184,0.0,-999.0,78,-99.99,,,-99.99,,2013-03-23 03:12:00,
2013-03-22 21:22:00,16.0,11.0,29.94,South,184,0.0,-999.0,79,-99.99,,,-99.99,,2013-03-23 03:22:00,
2013-03-22 21:33:00,16.0,10.0,29.93,South,184,0.0,-999.0,76,-99.99,,,-99.99,,2013-03-23 03:33:00,
2013-03-22 21:43:00,16.0,10.0,29.93,South,184,0.0,-999.0,76,-99.99,,,-99.99,,2013-03-23 03:43:00,
2013-03-22 21:53:00,16.0,9.0,29.95,South,178,0.0,-999.0,73,-99.99,,,-99.99,,2013-03-23 03:53:00,
2013-03-22 22:02:00,16.0,8.0,29.96,ESE,106,1.0,-999.0,70,-99.99,,,-99.99,,2013-03-23 04:02:00,
2013-03-22 22:12:00,16.0,8.0,29.96,ESE,106,1.0,-999.0,70,-99.99,,,-99.99,,2013-03-23 04:12:00,
2013-03-22 22:23:00,16.0,9.0,29.96,ESE,106,1.0,-999.0,72,-99.99,,,-99.99,,2013-03-23 04:23:00,
2013-03-22 22:32:00,16.0,9.0,29.96,ESE,107,0.0,-999.0,72,-99.99,,,-99.99,,2013-03-23 04:32:00,
2013-03-22 22:43:00,16.0,9.0,29.96,ESE,107,0.0,-999.0,72,-99.99,,,-99.99,,2013-03-23 04:43:00,
2013-03-22 22:53:00,16.0,9.0,29.97,ESE,107,0.0,-999.0,73,-99.99,,,-99.99,,2013-03-23 04:53:00,
2013-03-22 23:02:00,15.0,8.0,29.98,ESE,107,0.0,-999.0,73,-99.99,,,-99.99,,2013-03-23 05:02:00,
2013-03-22 23:12:00,15.0,8.0,29.98,ESE,107,0.0,-999.0,73,-99.99,,,-99.99,,2013-03-23 05:12:00,
2013-03-22 23:22:00,15.0,8.0,29.99,ESE,107,0.0,-999.0,72,-99.99,,,-99.99,,2013-03-23 05:22:00,
2013-03-22 23:32:00,15.0,8.0,29.99,SW,215,1.0,-999.0,73,-99.99,,,-99.99,,2013-03-23 05:32:00,
2013-03-22 23:42:00,15.0,8.0,29.99,SW,215,1.0,-999.0,73,-99.99,,,-99.99,,2013-03-23 05:42:00,
2013-03-22 23:52:00,14.0,7.0,29.98,East,84,1.0,-999.0,72,-99.99,,,-99.99,,2013-03-23 05:52:00,